Time,TemperatureF,DewpointF,PressureIn,WindDirection,WindDirectionDegrees,WindSpeedMPH,WindSpeedGustMPH,Humidity,HourlyPrecipIn,Conditions,Clouds,dailyrainin,SoftwareType,DateUTC
2013-06-01 00:04:00,64.6,62.0,30.00,SW,236,0.0,0.0,90,0.00,,,0.00,weatherlink.com 1.10,2013-06-01 04:04:00,
2013-06-01 00:19:00,64.3,61.0,30.01,SW,235,0.0,0.0,90,0.00,,,0.00,weatherlink.com 1.10,2013-06-01 04:19:00,
2013-06-01 00:34:00,64.0,61.0,30.01,SW,235,0.0,0.0,91,0.00,,,0.00,weatherlink.com 1.10,2013-06-01 04:34:00,
2013-06-01 00:49:00,64.7,62.0,30.03,West,278,0.0,7.0,92,0.00,,,0.00,weatherlink.com 1.10,2013-06-01 04:49:00,
2013-06-01 01:04:00,65.4,63.0,30.03,East,82,0.0,0.0,91,0.00,,,0.00,weatherlink.com 1.10,2013-06-01 05:04:00,
2013-06-01 01:19:00,67.3,64.0,30.03,West,267,0.0,0.0,89,0.00,,,0.00,weatherlink.com 1.10,2013-06-01 05:19:00,
2013-06-01 01:34:00,67.5,64.0,30.03,West,267,0.0,0.0,87,0.00,,,0.00,weatherlink.com 1.10,2013-06-01 05:34:00,
2013-06-01 01:49:00,66.8,63.0,30.04,West,267,0.0,0.0,87,0.00,,,0.00,weatherlink.com 1.10,2013-06-01 05:49:00,
2013-06-01 02:04:00,66.2,63.0,30.04,West,267,0.0,0.0,88,0.00,,,0.00,weatherlink.com 1.10,2013-06-01 06:04:00,
2013-06-01 02:19:00,65.9,62.0,30.04,West,267,0.0,0.0,88,0.00,,,0.00,weatherlink.com 1.10,2013-06-01 06:19:00,
2013-06-01 02:34:00,65.6,62.0,30.03,West,267,0.0,0.0,89,0.00,,,0.00,weatherlink.com 1.10,2013-06-01 06:34:00,
2013-06-01 02:49:00,65.4,63.0,30.02,West,267,0.0,0.0,90,0.00,,,0.00,weatherlink.com 1.10,2013-06-01 06:49:00,
2013-06-01 03:05:00,65.2,62.0,30.02,West,267,0.0,0.0,90,0.00,,,0.00,weatherlink.com 1.10,2013-06-01 07:05:00,
2013-06-01 03:20:00,64.7,62.0,30.02,West,267,0.0,0.0,90,0.00,,,0.00,weatherlink.com 1.10,2013-06-01 07:20:00,
2013-06-01 03:35:00,64.2,61.0,30.02,West,267,0.0,0.0,90,0.00,,,0.00,weatherlink.com 1.10,2013-06-01 07:35:00,
2013-06-01 03:50:00,63.9,61.0,30.01,West,267,0.0,0.0,90,0.00,,,0.00,weatherlink.com 1.10,2013-06-01 07:50:00,
2013-06-01 04:05:00,63.6,61.0,30.01,West,267,0.0,0.0,91,0.00,,,0.00,weatherlink.com 1.10,2013-06-01 08:05:00,
2013-06-01 04:20:00,63.7,61.0,30.01,West,267,0.0,0.0,91,0.00,,,0.00,weatherlink.com 1.10,2013-06-01 08:20:00,
2013-06-01 04:35:00,64.2,62.0,30.02,West,267,0.0,0.0,92,0.00,,,0.00,weatherlink.com 1.10,2013-06-01 08:35:00,
2013-06-01 04:50:00,64.3,62.0,30.02,West,267,0.0,0.0,92,0.00,,,0.00,weatherlink.com 1.10,2013-06-01 08:50:00,
2013-06-01 05:05:00,64.4,62.0,30.02,West,267,0.0,0.0,92,0.00,,,0.00,weatherlink.com 1.10,2013-06-01 09:05:00,
2013-06-01 05:20:00,64.4,62.0,30.02,West,267,0.0,0.0,92,0.00,,,0.00,weatherlink.com 1.10,2013-06-01 09:20:00,
2013-06-01 05:35:00,64.4,62.0,30.01,West,267,0.0,0.0,92,0.00,,,0.00,weatherlink.com 1.10,2013-06-01 09:35:00,
2013-06-01 05:50:00,64.6,63.0,30.01,West,267,0.0,0.0,93,0.00,,,0.00,weatherlink.com 1.10,2013-06-01 09:50:00,
2013-06-01 06:05:00,64.7,63.0,30.02,West,267,0.0,0.0,93,0.00,,,0.00,weatherlink.com 1.10,2013-06-01 10:05:00,
2013-06-01 06:20:00,64.6,63.0,30.02,West,267,0.0,0.0,93,0.00,,,0.00,weatherlink.com 1.10,2013-06-01 10:20:00,
2013-06-01 06:35:00,64.7,63.0,30.02,West,267,0.0,0.0,93,0.00,,,0.00,weatherlink.com 1.10,2013-06-01 10:35:00,
2013-06-01 06:50:00,64.9,63.0,30.02,West,267,0.0,0.0,93,0.00,,,0.00,weatherlink.com 1.10,2013-06-01 10:50:00,
2013-06-01 07:05:00,65.4,64.0,30.02,West,267,0.0,0.0,94,0.00,,,0.00,weatherlink.com 1.10,2013-06-01 11:05:00,
2013-06-01 07:20:00,66.2,65.0,30.02,West,268,0.0,0.0,94,0.00,,,0.00,weatherlink.com 1.10,2013-06-01 11:20:00,
2013-06-01 07:35:00,66.9,65.0,30.03,West,267,0.0,0.0,94,0.00,,,0.00,weatherlink.com 1.10,2013-06-01 11:35:00,
2013-06-01 07:50:00,67.6,66.0,30.03,West,267,0.0,0.0,94,0.00,,,0.00,weatherlink.com 1.10,2013-06-01 11:50:00,
2013-06-01 08:05:00,68.3,67.0,30.04,West,267,0.0,0.0,94,0.00,,,0.00,weatherlink.com 1.10,2013-06-01 12:05:00,
2013-06-01 08:20:00,70.0,68.0,30.03,West,267,0.0,0.0,94,0.00,,,0.00,weatherlink.com 1.10,2013-06-01 12:20:00,
2013-06-01 08:35:00,71.5,69.0,30.02,West,269,0.0,0.0,91,0.00,,,0.00,weatherlink.com 1.10,2013-06-01 12:35:00,
2013-06-01 08:50:00,73.9,68.0,30.02,SSW,201,0.0,3.0,82,0.00,,,0.00,weatherlink.com 1.10,2013-06-01 12:50:00,
2013-06-01 09:05:00,74.5,67.0,30.02,West,276,0.0,3.0,77,0.00,,,0.00,weatherlink.com 1.10,2013-06-01 13:05:00,
2013-06-01 09:20:00,75.0,67.0,30.02,WSW,248,2.0,5.0,76,0.00,,,0.00,weatherlink.com 1.10,2013-06-01 13:20:00,
2013-06-01 09:35:00,76.9,68.0,30.01,NW,319,2.0,4.0,74,0.00,,,0.00,weatherlink.com 1.10,2013-06-01 13:35:00,
2013-06-01 09:50:00,78.5,68.0,30.00,WNW,290,9.0,9.0,71,0.00,,,0.00,weatherlink.com 1.10,2013-06-01 13:50:00,
2013-06-01 10:05:00,79.7,68.0,29.99,SW,229,0.0,6.0,68,0.00,,,0.00,weatherlink.com 1.10,2013-06-01 14:05:00,
2013-06-01 10:20:00,80.4,68.0,29.99,SSE,155,1.0,8.0,65,0.00,,,0.00,weatherlink.com 1.10,2013-06-01 14:20:00,
2013-06-01 10:35:00,81.0,67.0,29.98,NW,321,0.0,10.0,63,0.00,,,0.00,weatherlink.com 1.10,2013-06-01 14:35:00,
2013-06-01 10:51:00,81.4,67.0,29.98,NNW,339,2.0,8.0,61,0.00,,,0.00,weatherlink.com 1.10,2013-06-01 14:51:00,
2013-06-01 11:06:00,82.0,67.0,29.98,WNW,285,1.0,11.0,61,0.00,,,0.00,weatherlink.com 1.10,2013-06-01 15:06:00,
2013-06-01 11:21:00,82.1,67.0,29.97,SSW,197,3.0,9.0,60,0.00,,,0.00,weatherlink.com 1.10,2013-06-01 15:21:00,
2013-06-01 11:36:00,83.3,68.0,29.97,SE,125,1.0,9.0,60,0.00,,,0.00,weatherlink.com 1.10,2013-06-01 15:36:00,
2013-06-01 11:51:00,83.0,67.0,29.98,WSW,256,1.0,10.0,58,0.00,,,0.00,weatherlink.com 1.10,2013-06-01 15:51:00,
2013-06-01 12:06:00,83.7,68.0,29.97,SE,134,0.0,8.0,60,0.00,,,0.00,weatherlink.com 1.10,2013-06-01 16:06:00,
2013-06-01 12:21:00,83.8,67.0,29.97,SW,235,2.0,9.0,57,0.00,,,0.00,weatherlink.com 1.10,2013-06-01 16:21:00,
2013-06-01 12:36:00,83.9,67.0,29.97,WNW,293,3.0,9.0,57,0.00,,,0.00,weatherlink.com 1.10,2013-06-01 16:36:00,
2013-06-01 12:51:00,84.8,67.0,29.96,WNW,285,7.0,10.0,56,0.00,,,0.00,weatherlink.com 1.10,2013-06-01 16:51:00,
2013-06-01 13:06:00,85.4,67.0,29.96,SSE,160,2.0,8.0,55,0.00,,,0.00,weatherlink.com 1.10,2013-06-01 17:06:00,
2013-06-01 13:21:00,85.6,66.0,29.96,SW,233,1.0,12.0,53,0.00,,,0.00,weatherlink.com 1.10,2013-06-01 17:21:00,
2013-06-01 13:36:00,85.5,66.0,29.96,SW,235,3.0,15.0,53,0.00,,,0.00,weatherlink.com 1.10,2013-06-01 17:36:00,
2013-06-01 13:51:00,86.1,67.0,29.95,WSW,242,2.0,7.0,53,0.00,,,0.00,weatherlink.com 1.10,2013-06-01 17:51:00,
2013-06-01 14:06:00,85.7,67.0,29.95,SW,224,2.0,8.0,53,0.00,,,0.00,weatherlink.com 1.10,2013-06-01 18:06:00,
2013-06-01 14:21:00,85.9,67.0,29.94,WNW,293,4.0,9.0,53,0.00,,,0.00,weatherlink.com 1.10,2013-06-01 18:21:00,
2013-06-01 14:36:00,85.2,67.0,29.94,West,278,3.0,9.0,55,0.00,,,0.00,weatherlink.com 1.10,2013-06-01 18:36:00,
2013-06-01 14:51:00,86.4,67.0,29.94,WNW,285,6.0,11.0,53,0.00,,,0.00,weatherlink.com 1.10,2013-06-01 18:51:00,
2013-06-01 15:06:00,86.5,67.0,29.93,SSW,208,5.0,11.0,52,0.00,,,0.00,weatherlink.com 1.10,2013-06-01 19:06:00,
2013-06-01 15:21:00,86.8,67.0,29.93,WSW,239,1.0,7.0,52,0.00,,,0.00,weatherlink.com 1.10,2013-06-01 19:21:00,
2013-06-01 15:36:00,86.4,67.0,29.92,South,177,0.0,10.0,52,0.00,,,0.00,weatherlink.com 1.10,2013-06-01 19:36:00,
2013-06-01 15:51:00,87.0,67.0,29.92,SW,229,5.0,8.0,52,0.00,,,0.00,weatherlink.com 1.10,2013-06-01 19:51:00,
2013-06-01 16:06:00,86.9,68.0,29.91,South,183,1.0,6.0,53,0.00,,,0.00,weatherlink.com 1.10,2013-06-01 20:06:00,
2013-06-01 16:21:00,86.2,66.0,29.91,SW,222,0.0,9.0,52,0.00,,,0.00,weatherlink.com 1.10,2013-06-01 20:21:00,
2013-06-01 16:36:00,87.0,67.0,29.91,WNW,293,1.0,7.0,52,0.00,,,0.00,weatherlink.com 1.10,2013-06-01 20:36:00,
2013-06-01 16:51:00,86.0,66.0,29.91,SSW,204,1.0,8.0,52,0.00,,,0.00,weatherlink.com 1.10,2013-06-01 20:51:00,
2013-06-01 17:06:00,85.9,67.0,29.91,NW,307,3.0,9.0,54,0.00,,,0.00,weatherlink.com 1.10,2013-06-01 21:06:00,
2013-06-01 17:21:00,86.8,68.0,29.91,SSW,208,1.0,9.0,53,0.00,,,0.00,weatherlink.com 1.10,2013-06-01 21:21:00,
2013-06-01 17:36:00,86.8,68.0,29.90,SW,218,3.0,8.0,53,0.00,,,0.00,weatherlink.com 1.10,2013-06-01 21:36:00,
2013-06-01 17:51:00,87.3,66.0,29.90,WSW,253,5.0,12.0,50,0.00,,,0.00,weatherlink.com 1.10,2013-06-01 21:51:00,
2013-06-01 18:06:00,85.6,67.0,29.90,SSW,195,0.0,9.0,54,0.00,,,0.00,weatherlink.com 1.10,2013-06-01 22:06:00,
2013-06-01 18:21:00,86.1,68.0,29.90,WSW,253,1.0,4.0,55,0.00,,,0.00,weatherlink.com 1.10,2013-06-01 22:21:00,
2013-06-01 18:37:00,84.7,67.0,29.89,WNW,291,3.0,7.0,56,0.00,,,0.00,weatherlink.com 1.10,2013-06-01 22:37:00,
2013-06-01 18:52:00,83.5,67.0,29.89,SW,228,1.0,6.0,58,0.00,,,0.00,weatherlink.com 1.10,2013-06-01 22:52:00,
2013-06-01 19:07:00,82.7,67.0,29.89,SSW,208,1.0,5.0,59,0.00,,,0.00,weatherlink.com 1.10,2013-06-01 23:07:00,
2013-06-01 19:22:00,82.5,67.0,29.89,North,354,0.0,4.0,59,0.00,,,0.00,weatherlink.com 1.10,2013-06-01 23:22:00,
2013-06-01 19:37:00,82.1,68.0,29.89,SW,221,1.0,4.0,62,0.00,,,0.00,weatherlink.com 1.10,2013-06-01 23:37:00,
2013-06-01 19:52:00,80.7,68.0,29.89,WSW,237,0.0,1.0,66,0.00,,,0.00,weatherlink.com 1.10,2013-06-01 23:52:00,
2013-06-01 20:07:00,79.0,68.0,29.88,SW,236,0.0,0.0,69,0.00,,,0.00,weatherlink.com 1.10,2013-06-02 00:07:00,
2013-06-01 20:22:00,77.7,68.0,29.88,SW,236,0.0,0.0,71,0.00,,,0.00,weatherlink.com 1.10,2013-06-02 00:22:00,
2013-06-01 20:37:00,76.4,67.0,29.88,SW,236,0.0,0.0,73,0.00,,,0.00,weatherlink.com 1.10,2013-06-02 00:37:00,
2013-06-01 20:52:00,75.0,67.0,29.87,SW,236,0.0,0.0,75,0.00,,,0.00,weatherlink.com 1.10,2013-06-02 00:52:00,
2013-06-01 21:07:00,73.8,67.0,29.88,SW,236,0.0,0.0,78,0.00,,,0.00,weatherlink.com 1.10,2013-06-02 01:07:00,
2013-06-01 21:22:00,72.8,66.0,29.88,SW,236,0.0,0.0,80,0.00,,,0.00,weatherlink.com 1.10,2013-06-02 01:22:00,
2013-06-01 21:37:00,72.0,66.0,29.89,SW,236,0.0,0.0,82,0.00,,,0.00,weatherlink.com 1.10,2013-06-02 01:37:00,
2013-06-01 21:52:00,71.4,66.0,29.88,SW,236,0.0,0.0,84,0.00,,,0.00,weatherlink.com 1.10,2013-06-02 01:52:00,
2013-06-01 22:07:00,70.6,66.0,29.88,SW,236,0.0,0.0,85,0.00,,,0.00,weatherlink.com 1.10,2013-06-02 02:07:00,
2013-06-01 22:22:00,70.5,66.0,29.87,SW,236,0.0,0.0,86,0.00,,,0.00,weatherlink.com 1.10,2013-06-02 02:22:00,
2013-06-01 22:37:00,70.0,66.0,29.87,SW,236,0.0,0.0,86,0.00,,,0.00,weatherlink.com 1.10,2013-06-02 02:37:00,
2013-06-01 22:52:00,69.6,66.0,29.87,SW,236,0.0,0.0,87,0.00,,,0.00,weatherlink.com 1.10,2013-06-02 02:52:00,
2013-06-01 23:07:00,69.1,66.0,29.86,SW,236,0.0,0.0,88,0.00,,,0.00,weatherlink.com 1.10,2013-06-02 03:07:00,
2013-06-01 23:22:00,68.6,65.0,29.85,SW,236,0.0,0.0,89,0.00,,,0.00,weatherlink.com 1.10,2013-06-02 03:22:00,
2013-06-01 23:37:00,68.0,65.0,29.85,SW,236,0.0,0.0,89,0.00,,,0.00,weatherlink.com 1.10,2013-06-02 03:37:00,
2013-06-01 23:52:00,67.7,65.0,29.85,SW,236,0.0,0.0,90,0.00,,,0.00,weatherlink.com 1.10,2013-06-02 03:52:00,